Weather History for Charlottesville, VA

Change the Weather History Date:

Friday, May 17, 2013

  Actual Average Record
Temperature  
Mean Temperature 71 °F 63 °F  
Max Temperature 81 °F 75 °F 93 °F (1911)
Min Temperature 60 °F 52 °F 37 °F (1956)
Degree Days  
Heating Degree Days 0 4  
Month to date heating degree days 108 88  
Since 1 July heating degree days 4167 4400  
Cooling Degree Days 6 2  
Month to date cooling degree days 30 25  
Year to date cooling degree days 74 46  
Growing Degree Days 21 (Base 50)    
Moisture  
Dew Point 57 °F    
Average Humidity 63    
Maximum Humidity 90    
Minimum Humidity 35    
Precipitation  
Precipitation 0.07 in 0.13 in 2.51 in (2011)
Month to date precipitation 2.87 2.01  
Year to date precipitation 15.15 14.50  
Sea Level Pressure  
Sea Level Pressure 30.05 in    
Wind  
Wind Speed 4 mph (South)    
Max Wind Speed 12 mph    
Max Gust Speed 22 mph    
Visibility 10 miles    
Events Rain    
T = Trace of Precipitation, MM = Missing Value Source: NWS Daily Summary

Daily Weather History Graph

Daily Weather History Graph

Search for Another Location

Airport:

Trip Planner

Search our weather history database for the weather conditions in past years. The results will help you decide how hot, cold, wet, or windy it might be!

Date:

Astronomy

May. 17, 2013 Rise Set
Actual Time 6:01 AM EDT 8:19 PM EDT
Civil Twilight 5:31 AM EDT 8:49 PM EDT
Nautical Twilight 4:54 AM EDT 9:26 PM EDT
Astronomical Twilight 4:14 AM EDT 10:06 PM EDT
Moon 12:29 PM EDT (5/17) 1:13 AM EDT (5/17)
Length of Visible Light 15h 18m
Length of Day
14h 18m
Waxing Crescent, 45% of the Moon is Illuminated
May 17
Waxing Crescent
May 18
First Quarter
May 25
Full
May 31
Last Quarter
Jun 8
New

Hourly Weather History & Observations

Time (EDT) Temp. Heat Index Dew Point Humidity Pressure Visibility Wind Dir Wind Speed Gust Speed Precip Events Conditions
12:53 AM 66.9 °F - 59.0 °F 76% 29.94 in 10.0 mi Calm Calm - N/A   Clear
1:53 AM 64.0 °F - 60.1 °F 87% 29.94 in 10.0 mi SW 3.5 mph - N/A   Clear
2:53 AM 63.0 °F - 59.0 °F 87% 29.96 in 10.0 mi Calm Calm - N/A   Mostly Cloudy
3:53 AM 64.0 °F - 57.0 °F 78% 29.97 in 10.0 mi West 3.5 mph - N/A   Clear
4:53 AM 62.1 °F - 57.0 °F 84% 29.99 in 10.0 mi Calm Calm - N/A   Scattered Clouds
5:53 AM 62.1 °F - 57.0 °F 84% 30.01 in 10.0 mi South 3.5 mph - N/A   Overcast
6:53 AM 61.0 °F - 57.9 °F 90% 30.04 in 10.0 mi Calm Calm - N/A   Mostly Cloudy
8:53 AM 66.9 °F - 60.1 °F 79% 30.09 in 10.0 mi Calm Calm - N/A   Clear
9:53 AM 71.1 °F - 60.1 °F 68% 30.09 in 10.0 mi Variable 5.8 mph - N/A   Clear
10:53 AM 75.0 °F - 59.0 °F 57% 30.10 in 10.0 mi NE 6.9 mph - N/A   Clear
11:53 AM 77.0 °F - 55.0 °F 47% 30.10 in 10.0 mi SSE 9.2 mph - N/A   Clear
12:53 PM 78.1 °F - 50.0 °F 37% 30.09 in 10.0 mi South 10.4 mph - N/A   Clear
1:53 PM 80.1 °F - 52.0 °F 38% 30.08 in 10.0 mi SSE 10.4 mph - N/A   Clear
2:53 PM 80.1 °F - 50.0 °F 35% 30.07 in 10.0 mi SSE 8.1 mph - N/A   Clear
3:53 PM 81.0 °F - 51.1 °F 35% 30.06 in 10.0 mi South 8.1 mph - N/A   Clear
4:53 PM 80.1 °F 79.9 °F 53.1 °F 39% 30.04 in 10.0 mi SSE 6.9 mph - N/A   Scattered Clouds
5:53 PM 79.0 °F - 55.9 °F 45% 30.04 in 10.0 mi South 9.2 mph - N/A   Mostly Cloudy
6:53 PM 78.1 °F - 57.9 °F 50% 30.04 in 10.0 mi SSE 5.8 mph - N/A   Mostly Cloudy
7:53 PM 77.0 °F - 57.9 °F 52% 30.05 in 10.0 mi Calm Calm - N/A   Overcast
8:53 PM 73.0 °F - 60.1 °F 64% 30.07 in 10.0 mi NNW 3.5 mph - N/A   Overcast
9:53 PM 70.0 °F - 62.1 °F 76% 30.11 in 7.0 mi South 3.5 mph - 0.00 in Rain Light Rain
10:53 PM 66.0 °F - 62.1 °F 87% 30.12 in 6.0 mi ESE 5.8 mph - 0.06 in Rain Light Rain
11:53 PM 64.0 °F - 61.0 °F 90% 30.11 in 9.0 mi Calm Calm - 0.01 in   Mostly Cloudy